Williamsport, PA

7:25 AM EST on January 16, 2018 (GMT -0500)
Williamsport Rgnl

Weather History for KIPT - August, 2014

Change the Weather History Date:

Sunday, August 10, 2014

  Actual Average Record
Temperature  
Mean Temperature 71 °F 72 °F  
Max Temperature 86 °F 83 °F 99 °F (1949)
Min Temperature 55 °F 62 °F 45 °F (1899)
Degree Days  
Heating Degree Days 0 0  
Month to date heating degree days 0 0  
Since 1 June heating degree days 8 41  
Since 1 July heating degree days 0 4  
Cooling Degree Days 6 7  
Month to date cooling degree days 65 75  
Year to date cooling degree days 524 508  
Since 1 June cooling degree days 472 465  
Growing Degree Days 20 (Base 50)    
Moisture  
Dew Point 55 °F    
Average Humidity 63    
Maximum Humidity 93    
Minimum Humidity 32    
Precipitation  
Precipitation 0.00 in 0.13 in 3.70 in (1912)
Month to date precipitation 0.69 1.33  
Year to date precipitation 22.92 24.50  
Sea Level Pressure  
Sea Level Pressure 30.12 in    
Wind  
Wind Speed 2 mph (West)    
Max Wind Speed 9 mph    
Max Gust Speed 13 mph    
Visibility 10 miles    
Events      
T = Trace of Precipitation, MM = Missing Value Source: NWS Daily Summary

Daily Weather History Graph

Daily Weather History Graph

Search for Another Location

Airport or City:

Trip Planner

Search our weather history database for the weather conditions in past years. The results will help you decide how hot, cold, wet, or windy it might be!

Date:

Astronomy

Aug. 10, 2014 Rise Set
Actual Time 6:11 AM EDT 8:13 PM EDT
Civil Twilight 5:41 AM EDT 8:43 PM EDT
Nautical Twilight 5:04 AM EDT 9:20 PM EDT
Astronomical Twilight 4:24 AM EDT 10:00 PM EDT
Moon 7:57 PM EDT (8/10) 6:02 AM EDT (8/10)
Length of Visible Light 15h 01m
Length of Day
14h 01m
Full, 100% of the Moon is Illuminated
Aug 10
Full
Aug 10
Full
Aug 17
Last Quarter
Aug 25
New
Sep 2
First Quarter

Hourly Weather History & Observations

Time (EDT) Temp. Heat Index Dew Point Humidity Pressure Visibility Wind Dir Wind Speed Gust Speed Precip Events Conditions
12:54 AM 61.0 °F - 55.9 °F 83% 30.14 in 10.0 mi NNW 3.5 mph - N/A   Clear
1:54 AM 59.0 °F - 55.0 °F 87% 30.13 in 10.0 mi NW 3.5 mph - N/A   Clear
2:54 AM 57.9 °F - 54.0 °F 87% 30.14 in 10.0 mi Calm Calm - N/A   Clear
3:54 AM 57.9 °F - 54.0 °F 87% 30.14 in 10.0 mi Calm Calm - N/A   Clear
4:54 AM 57.2 °F - 53.6 °F 88% 30.14 in 10.0 mi NNW 3.5 mph - N/A   Clear
5:54 AM 55.9 °F - 53.1 °F 90% 30.15 in 10.0 mi Calm Calm - N/A   Clear
6:28 AM 55.9 °F - 52.0 °F 87% 30.16 in 10.0 mi Calm Calm - N/A   Scattered Clouds
6:54 AM 57.0 °F - 53.1 °F 87% 30.16 in 10.0 mi Calm Calm - N/A   Partly Cloudy
7:54 AM 61.0 °F - 55.9 °F 83% 30.17 in 10.0 mi Calm Calm - N/A   Clear
8:54 AM 64.0 °F - 55.9 °F 75% 30.17 in 10.0 mi WSW 3.5 mph - N/A   Clear
9:54 AM 69.1 °F - 55.9 °F 63% 30.15 in 10.0 mi SW 3.5 mph - N/A   Clear
10:54 AM 75.0 °F - 57.0 °F 53% 30.15 in 10.0 mi Calm Calm - N/A   Clear
11:54 AM 78.1 °F - 59.0 °F 52% 30.14 in 10.0 mi Variable 3.5 mph - N/A   Clear
12:54 PM 82.0 °F 81.3 °F 54.0 °F 38% 30.13 in 10.0 mi NE 3.5 mph - N/A   Clear
1:54 PM 84.0 °F 82.5 °F 53.1 °F 34% 30.11 in 10.0 mi South 4.6 mph - N/A   Clear
2:54 PM 84.0 °F 82.5 °F 53.1 °F 34% 30.10 in 10.0 mi SE 6.9 mph - N/A   Clear
3:54 PM 84.9 °F - 52.0 °F 32% 30.08 in 10.0 mi Variable 4.6 mph - N/A   Scattered Clouds
4:54 PM 84.9 °F - 51.1 °F 31% 30.07 in 10.0 mi Variable 3.5 mph - N/A   Partly Cloudy
5:54 PM 84.9 °F - 51.1 °F 31% 30.06 in 10.0 mi SSW 4.6 mph - N/A   Partly Cloudy
6:54 PM 81.0 °F 81.1 °F 57.9 °F 45% 30.07 in 10.0 mi SSW 3.5 mph - N/A   Clear
7:54 PM 77.0 °F - 60.1 °F 56% 30.07 in 10.0 mi Calm Calm - N/A   Clear
8:54 PM 72.0 °F - 60.1 °F 66% 30.07 in 10.0 mi NNW 3.5 mph - N/A   Clear
9:54 PM 69.1 °F - 59.0 °F 70% 30.08 in 10.0 mi Calm Calm - N/A   Clear
10:54 PM 66.9 °F - 57.0 °F 70% 30.09 in 10.0 mi Calm Calm - N/A   Clear
11:54 PM 64.9 °F - 57.0 °F 75% 30.10 in 10.0 mi Calm Calm - N/A   Clear